sat.trackr.live / text

‹ back to catalog

STARLINK-34131

NORAD 64182 · 2025-113N

PAYLOAD ACTIVE UNKNOWN

§ Identity

Operator
Country
US
Launch date
2025-05-28
Launch site
AFETR
Launch vehicle
Mass (kg)
RCS (m²)

Purposes: comms

External: N2YO · Heavens-Above · Gunter

§ Orbital elements

Epoch: 2026-09-20T23:16:29.395488Z

Period
93.85 min
Inclination
53.1575°
Eccentricity
0.0001268
Mean motion
15.34395982 rev/d
Perigee alt
461.8 km
Apogee alt
463.6 km
Semi-major
6,840.9 km
B*
4.3057e-4
RAAN
263.3435°
Arg perigee
73.5141°
Mean anomaly
286.6001°
Rev number
7,493

§ Raw data

STARLINK-341311 64182U 25113N   26263.96978467  .00014197  00000+0  43057-3 0  99912 64182  53.1575 263.3435 0001268  73.5141 286.6001 15.34395982 74938

JSON: /api/v1/satellites/64182 · /tle

For live sub-satellite position, see the globe view (requires WebGL).

§ Visibility from observer

Set your observer location to see the next 7 days of passes ≥ 10°. The values pass through the URL so the page stays shareable.

No JS? Fill the form by hand. The geolocation button needs JavaScript.